Toms River, NJ

6:56 AM EDT on October 21, 2019 (GMT -0400)
Miller

Weather History for KMJX - August, 2019

Change the Weather History Date:

Thursday, August 15, 2019

  Actual Average Record
Temperature  
Mean Temperature 74 °F -  
Max Temperature 78 °F 84 °F 98 °F (1988)
Min Temperature 69 °F 62 °F 50 °F (1961)
Cooling Degree Days 8    
Growing Degree Days 24 (Base 50)    
Moisture  
Dew Point 74 °F    
Average Humidity 96    
Maximum Humidity 100    
Minimum Humidity 78    
Precipitation  
Precipitation 0.00 in - - ()
Sea Level Pressure  
Sea Level Pressure 29.99 in    
Wind  
Wind Speed 5 mph (ENE)    
Max Wind Speed 12 mph    
Max Gust Speed 16 mph    
Visibility 8 miles    
Events      
Averages and records for this station are not official NWS values.
T = Trace of Precipitation, MM = Missing Value Source: NWS Daily Summary

Daily Weather History Graph

Daily Weather History Graph

Search for Another Location

Airport or City:

Astronomy

Aug. 15, 2019 Rise Set
Actual Time 6:08 AM EDT 7:53 PM EDT
Civil Twilight 5:39 AM EDT 8:22 PM EDT
Nautical Twilight 5:04 AM EDT 8:57 PM EDT
Astronomical Twilight 4:26 AM EDT 9:35 PM EDT
Moon 8:21 PM EDT (8/15) 6:00 AM EDT (8/15)
Length of Visible Light 14h 43m
Length of Day
13h 45m
Full, 100% of the Moon is Illuminated
Aug 15
Full
Aug 23
Last Quarter
Aug 30
New
Sep 5
First Quarter
Sep 14
Full

Hourly Weather History & Observations

Time (EDT) Temp. Dew Point Humidity Pressure Visibility Wind Dir Wind Speed Gust Speed Precip Events Conditions
12:56 AM - - N/A% 29.93 in 4.0 mi North 3.5 mph - N/A   Haze
1:56 AM - - N/A% 29.94 in 4.0 mi Calm Calm - N/A   Haze
2:56 AM - - N/A% 29.94 in 4.0 mi North - - N/A   Haze
3:08 AM - - N/A% 29.94 in 3.0 mi North - - N/A   Partly Cloudy
3:56 AM - - N/A% 29.94 in 3.0 mi Calm Calm - N/A   Clear
4:17 AM - - N/A% 29.94 in 3.0 mi NNE 4.6 mph - N/A   Scattered Clouds
4:21 AM - - N/A% 29.93 in 2.5 mi NNE 4.6 mph - N/A   Mostly Cloudy
4:34 AM - - N/A% 29.93 in 4.0 mi North 6.9 mph - N/A   Haze
4:56 AM - - N/A% 29.93 in 4.0 mi North 6.9 mph - N/A   Haze
5:19 AM - - N/A% - 3.0 mi NNE 5.8 mph - N/A   Overcast
5:56 AM - - N/A% 29.95 in 3.0 mi North 5.8 mph - N/A   Overcast
6:08 AM - - N/A% 29.95 in 2.5 mi NE 5.8 mph - N/A   Overcast
6:22 AM - - N/A% 29.96 in 1.8 mi NE 4.6 mph - N/A   Overcast
6:38 AM - - N/A% 29.96 in 3.0 mi NNE 8.1 mph - N/A   Overcast
6:56 AM - - N/A% 29.97 in 4.0 mi NE 8.1 mph - N/A   Haze
7:56 AM 71.1 °F - N/A% 30.01 in 10.0 mi East 5.8 mph - N/A   Mostly Cloudy
8:56 AM 73.0 °F - N/A% 30.02 in 10.0 mi NE 8.1 mph - N/A   Overcast
9:04 AM 73.4 °F - N/A% 30.01 in 10.0 mi ENE 5.8 mph - N/A   Overcast
9:17 AM 73.4 °F - N/A% 30.01 in 10.0 mi ENE 8.1 mph - N/A   Mostly Cloudy
9:24 AM 75.2 °F - N/A% 30.01 in 10.0 mi East 8.1 mph - N/A   Mostly Cloudy
9:33 AM 73.4 °F - N/A% 30.01 in 10.0 mi ENE 6.9 mph - N/A   Scattered Clouds
9:48 AM 75.2 °F 75.2 °F 100% 30.01 in 10.0 mi East 8.1 mph - N/A   Mostly Cloudy
9:56 AM 75.9 °F 75.9 °F 100% 30.01 in 10.0 mi ENE 10.4 mph - N/A   Scattered Clouds
10:43 AM 75.2 °F 75.2 °F 100% 30.03 in 10.0 mi East 8.1 mph - N/A   Mostly Cloudy
10:56 AM 75.9 °F 75.0 °F 97% 30.03 in 10.0 mi NE 11.5 mph 16.1 mph N/A   Mostly Cloudy
11:56 AM 75.9 °F 75.9 °F 100% 30.03 in 10.0 mi ENE 9.2 mph - N/A   Overcast
12:56 PM 75.9 °F 73.9 °F 94% 30.02 in 10.0 mi East 10.4 mph - N/A   Overcast
1:56 PM 75.9 °F 73.9 °F 94% 30.02 in 10.0 mi ENE 4.6 mph - N/A   Overcast
2:56 PM 78.1 °F 73.9 °F 87% 30.01 in 10.0 mi SE 6.9 mph - N/A   Mostly Cloudy
3:32 PM 78.8 °F 71.6 °F 78% 29.99 in 10.0 mi East 5.8 mph - N/A   Scattered Clouds
3:56 PM 77.0 °F 73.0 °F 88% 29.99 in 10.0 mi East 8.1 mph - N/A   Mostly Cloudy
4:56 PM 77.0 °F 75.0 °F 94% 30.00 in 10.0 mi East 8.1 mph - N/A   Mostly Cloudy
5:56 PM 73.9 °F 73.9 °F 100% 30.01 in 10.0 mi ESE 5.8 mph - N/A   Mostly Cloudy
6:24 PM 75.2 °F 75.2 °F 100% 30.01 in 10.0 mi ESE 5.8 mph - N/A   Scattered Clouds
6:56 PM 75.0 °F 75.0 °F 100% 30.01 in 10.0 mi ESE 4.6 mph - N/A   Scattered Clouds
7:03 PM 75.2 °F 75.2 °F 100% 30.01 in 10.0 mi ESE 4.6 mph - N/A   Mostly Cloudy
7:19 PM 73.4 °F 73.4 °F 100% 30.00 in 10.0 mi East 3.5 mph - N/A   Scattered Clouds
7:56 PM 72.0 °F - N/A% 30.01 in 10.0 mi ENE 3.5 mph - N/A   Clear
8:56 PM 70.0 °F - N/A% 30.01 in 10.0 mi ENE 4.6 mph - N/A   Clear
9:42 PM 69.8 °F - N/A% 30.01 in 10.0 mi Calm Calm - N/A   Mostly Cloudy
9:56 PM 70.0 °F - N/A% 30.02 in 10.0 mi NE 3.5 mph - N/A   Overcast
10:56 PM 71.1 °F - N/A% 30.04 in 10.0 mi Calm Calm - N/A   Overcast
11:56 PM 72.0 °F - N/A% 30.04 in 10.0 mi Calm Calm - N/A   Overcast